SCP
0 0 0 0 0 0 0 0 1 1 1 1 1 1 1 0 0 0 0 0 0 0 0 0 0 0 0 0 0 0 0 0 0 0 0 0 0 0 0 0 0 0 0
0 0 0 0 0 0 0 0 0 1 1 1 1 0 0 0 0 0 0 0 0 0 0 0 0 0 0 0 0 0 0 0 0 0 0 0 0 0 0 0 0 0 0
0 0 0 0 0 0 0 0 0 0 0 0 0 0 0 0 0 0 0 0 0 0 0 0 0 0 0 0 0 0 0 0 0 0 0 0 0 0 0 0 0 0 0
0 0 0 0 0 0 0 0 0 0 0 0 0 0 0 0 0 0 0 0 0 0 0 0 0 0 0 0 0 0 0 0 0 0 0 0 0 0 0 0 0 0 0
0 0 0 0 0 0 0 0 0 0 0 0 0 0 0 0 0 0 0 0 0 0 0 0 0 0 0 0 0 0 0 0 0 0 0 0 0 0 0 0 0 0 0
0 0 0 0 0 0 0 0 0 0 0 0 0 0 0 0 0 0 0 0 0 0 0 0 0 0 0 0 0 0 0 0 0 0 0 0 0 0 0 0 0 0 0
0 0 0 0 0 0 0 0 0 0 0 0 0 0 0 0 0 0 0 0 0 0 0 0 0 0 0 0 0 0 0 0 0 0 0 0 0 0 0 0 0 0 0
0 0 0 0 0 0 0 0 0 0 0 0 0 0 0 0 0 0 0 0 0 0 0 0 0 0 0 0 0 0 0 0 0 0 0 0 0 0 0 0 0 0 0
0 0 0 0 0 0 0 0 0 0 0 0 0 0 0 0 0 0 0 0 0 0 0 0 0 0 0 0 0 0 0 0 0 0 0 0 0 0 0 0 0 0 0
1 1 1 1 1 0 0 0 0 0 0 0 0 1 1 0 0 0 0 0 0 0 0 0 0 0 0 0 0 0 0 0 0 0 0 0 0 0 0 0 0 0 0
1 1 1 1 1 1 1 1 1 1 1 1 1 1 1 1 1 1 1 1 0 0 0 0 0 0 0 0 0 0 0 0 0 0 0 0 0 0 0 0 0 0 0
1 1 1 1 1 1 1 1 1 1 1 1 1 1 1 1 1 1 1 1 1 1 0 0 0 0 0 0 1 0 0 0 0 0 0 0 0 0 0 0 0 0 0
0 1 1 1 1 2 2 2 2 2 2 2 2 1 1 1 1 1 1 1 1 1 1 1 0 1 1 1 1 1 1 1 0 0 0 0 0 0 0 0 0 0 0
0 0 1 1 1 2 2 2 2 2 2 2 2 2 2 2 2 2 1 1 1 1 1 1 1 1 1 1 1 1 1 1 1 0 0 0 0 0 0 0 0 0 0
1 0 1 1 1 2 2 2 2 2 2 2 2 2 2 3 3 3 2 2 1 1 1 2 2 1 1 1 1 1 1 1 1 1 1 0 0 0 0 0 0 0 0
1 1 1 1 1 1 1 1 1 2 2 2 2 2 3 3 4 4 3 2 2 2 2 2 3 2 1 1 1 1 1 1 1 1 1 1 1 1 1 1 1 1 1
2 1 1 1 1 1 1 1 1 1 1 1 1 2 2 3 4 3 3 2 2 2 2 2 2 2 1 1 1 1 1 1 1 1 1 1 1 1 1 1 1 1 1
2 2 2 2 1 1 1 1 1 1 1 1 1 1 2 2 2 3 3 2 2 3 3 2 2 2 2 2 2 2 1 1 1 1 1 1 1 1 1 1 1 1 1
3 3 2 2 2 2 1 1 1 1 1 1 1 1 2 2 2 2 2 2 2 3 3 2 2 2 2 2 2 2 2 1 1 1 1 1 1 1 1 1 1 1 1
3 3 3 2 2 2 1 1 1 1 1 1 1 1 1 2 2 2 2 2 2 2 2 2 2 2 2 2 2 2 2 1 1 1 1 1 1 1 1 1 1 1 1
3 3 2 2 2 1 1 1 1 1 1 1 1 1 1 1 1 1 1 2 2 2 2 2 2 2 2 2 2 1 1 1 1 1 1 1 1 1 1 1 1 1 1
2 2 2 1 1 1 1 1 1 1 1 1 0 0 1 1 1 1 1 1 1 1 2 2 2 2 2 2 1 1 1 1 1 1 1 1 1 1 1 1 1 1 1
1 1 1 1 1 1 1 1 1 1 1 0 0 0 0 0 0 1 1 1 1 1 1 2 2 2 2 2 2 1 1 1 1 0 0 1 1 1 1 1 1 1 1
0 0 1 1 1 1 1 1 1 1 1 0 0 0 0 0 0 0 0 0 1 1 1 2 2 2 2 2 2 2 1 1 1 0 0 0 0 0 0 0 0 1 1
0 1 1 1 1 1 1 1 1 1 1 0 0 0 0 0 0 0 0 0 0 1 1 1 2 2 2 2 2 2 1 1 1 1 1 0 0 0 0 0 0 1 1
0 1 1 1 1 1 1 1 1 1 0 0 0 0 0 0 0 0 0 0 0 0 1 1 1 2 2 2 2 2 2 1 1 1 1 1 0 0 0 0 0 1 1
Wind_Speed
7 10 19 19 18 17 16 15 15 15 15 14 14 14 13 13 12 12 11 10 9 9 9 9 9 9 8 8 8 9 10 10 10 10 10 11 11 11 11 11 10 8 11
12 12 19 19 18 17 16 15 15 15 14 14 13 13 12 11 11 11 10 10 9 9 9 8 8 8 8 8 8 8 8 8 9 8 9 9 9 9 10 10 10 7 12
12 11 15 18 17 17 16 15 15 15 15 14 13 12 11 11 10 10 9 8 8 8 8 7 7 7 7 7 7 7 7 6 6 7 7 4 5 6 8 10 10 11 11
12 9 10 17 16 16 16 15 15 16 15 14 13 12 11 10 10 9 9 8 7 6 6 6 6 6 6 6 6 6 6 6 6 6 4 3 3 4 8 10 10 10 11
10 9 11 18 16 16 16 16 15 15 15 15 14 12 11 10 9 8 8 7 6 5 5 4 4 4 5 5 5 5 5 5 6 5 3 3 2 4 7 10 11 11 11
9 8 12 18 16 16 15 15 14 14 14 13 12 11 10 9 8 8 8 7 7 6 5 5 5 5 5 5 5 6 6 6 6 3 3 3 3 6 9 11 11 11 11
9 7 9 18 17 15 14 14 13 13 12 11 10 10 9 9 8 8 8 8 8 7 7 7 7 7 7 7 7 7 7 7 5 4 4 4 5 8 12 14 13 13 13
10 8 7 17 16 15 14 13 13 12 11 11 10 9 9 8 8 8 9 9 9 9 9 9 9 9 9 9 8 8 8 8 6 5 5 5 7 8 11 14 15 15 15
9 7 5 8 11 14 13 12 12 11 11 10 10 9 9 9 8 9 9 10 10 10 11 11 11 11 11 10 10 10 10 10 7 5 5 4 7 9 11 12 15 16 16
8 6 5 5 5 5 7 11 12 11 11 11 10 10 10 10 10 10 9 10 11 12 12 13 13 13 11 11 11 11 12 11 8 7 5 6 10 12 12 13 15 17 17
8 6 5 5 4 5 5 8 10 12 11 11 10 12 10 5 5 6 8 11 13 13 14 14 15 14 13 11 13 13 12 5 7 7 6 9 12 13 14 14 15 17 18
10 9 6 7 7 6 6 5 4 4 5 6 5 5 4 3 4 7 8 13 14 14 15 16 15 15 12 6 9 12 6 8 8 7 7 13 14 15 16 16 16 16 18
10 10 9 8 8 8 6 4 3 3 4 5 6 6 4 3 4 5 3 6 7 10 8 9 10 7 7 6 6 6 8 8 6 7 8 14 15 16 17 16 16 16 17
8 11 9 8 7 6 5 4 4 3 4 4 5 6 4 3 4 4 4 5 5 4 6 6 5 7 8 9 9 10 10 7 7 6 8 16 16 17 17 16 16 16 15
8 9 8 8 8 7 6 4 4 5 4 4 4 4 6 6 6 6 6 6 6 6 6 7 7 8 9 9 9 10 10 10 9 9 7 15 17 16 17 17 17 17 16
9 8 7 8 8 6 6 6 5 4 4 4 5 7 8 7 8 7 7 7 7 7 7 7 9 8 7 7 8 9 10 9 9 10 9 11 16 17 17 18 18 18 17
7 6 6 6 5 6 5 5 4 3 4 4 5 7 8 8 8 8 7 7 7 7 8 8 9 7 7 6 8 9 8 9 9 10 10 8 9 13 16 17 18 19 18
5 5 5 6 6 6 6 5 4 4 5 5 5 6 8 9 10 8 7 8 8 7 7 7 7 7 7 7 7 7 7 7 10 10 9 9 8 8 11 15 17 18 19
5 5 5 5 6 7 6 5 4 4 4 4 3 4 5 7 7 6 6 7 7 6 6 7 7 6 7 8 7 7 6 7 8 9 10 11 10 10 9 11 15 16 19
5 5 5 4 4 4 3 3 2 3 3 3 3 3 4 4 5 4 5 7 6 5 6 6 8 7 7 6 7 7 6 7 7 8 10 9 10 11 11 10 9 10 16
4 4 5 4 4 3 2 2 2 2 2 2 2 3 4 4 5 4 4 5 5 5 7 7 7 8 7 4 3 5 6 8 9 9 9 9 10 11 10 10 8 8 7
4 5 5 5 4 4 2 2 1 1 1 2 2 3 4 4 5 5 5 5 5 5 7 7 7 4 4 5 4 3 4 3 5 7 7 7 8 7 8 9 9 9 8
6 6 5 5 4 3 2 1 0 1 2 2 2 2 3 4 4 5 6 6 7 6 6 7 7 8 6 6 6 5 4 5 3 2 4 4 5 5 5 6 8 9 9
8 5 4 4 3 2 2 2 3 2 2 2 2 3 5 5 5 6 6 7 7 7 8 8 8 7 8 6 6 7 7 4 4 3 2 2 3 4 4 4 5 5 5
4 3 3 3 3 2 3 4 3 3 2 2 2 4 5 6 7 7 7 7 8 7 9 9 9 9 8 8 6 5 7 6 7 5 4 2 2 2 2 3 3 3 2
3 3 3 3 4 3 4 4 5 5 4 2 3 4 4 4 5 7 8 7 8 8 9 9 9 10 9 10 8 6 6 5 6 6 8 5 3 1 2 3 3 1 1
Wind_Direction
160 160 162 159 157 152 145 140 135 131 129 129 129 132 134 136 137 136 134 132 127 121 117 115 115 115 114 113 110 107 110 118 120 120 124 127 127 124 121 123 125 127 129
151 158 163 160 157 153 148 144 139 136 135 134 134 136 138 139 139 137 136 137 134 128 123 121 120 120 120 120 119 117 116 119 126 132 139 137 136 133 133 133 136 140 138
143 156 162 160 158 155 152 150 146 144 143 142 141 141 142 144 143 142 140 141 142 140 136 134 131 129 128 128 128 129 129 127 133 145 138 124 143 156 164 151 152 147 146
146 152 156 161 160 158 157 157 155 153 152 150 149 148 148 148 149 150 150 150 153 153 151 150 148 145 144 146 148 151 152 154 160 153 137 159 183 166 167 162 163 160 157
145 150 161 164 165 165 165 165 164 162 159 157 157 157 158 159 160 162 162 163 169 173 175 176 175 171 171 175 179 182 185 186 190 176 171 184 210 202 181 175 175 176 172
148 151 166 167 171 173 173 173 172 170 167 165 164 165 168 172 177 179 178 181 187 195 204 211 214 216 217 216 215 214 214 217 213 194 202 209 215 226 212 198 192 189 185
152 153 170 170 176 178 179 180 180 178 176 176 176 177 181 187 194 197 197 199 203 210 219 227 233 237 241 244 244 242 242 241 227 211 220 232 241 245 231 211 205 202 197
155 153 171 175 179 182 185 187 188 186 185 186 187 192 198 204 212 216 215 216 219 221 226 234 239 244 247 250 254 255 258 254 251 231 227 232 247 256 246 220 209 209 207
154 151 172 176 183 188 191 195 199 198 196 197 199 205 211 218 225 231 229 229 233 236 239 242 245 249 250 249 256 261 264 263 260 248 248 235 246 258 258 236 217 215 215
153 153 156 162 175 186 197 205 209 212 211 211 212 216 222 228 232 238 235 235 242 247 251 253 254 256 254 251 255 260 263 267 263 260 255 249 248 253 259 253 236 225 223
164 161 157 162 172 179 189 211 214 217 219 222 224 227 230 233 241 249 248 243 247 254 259 261 262 262 261 258 259 261 265 257 259 261 257 256 256 255 256 255 250 240 232
180 183 178 179 181 182 195 199 204 207 211 214 211 225 227 222 232 244 250 252 253 257 262 264 264 265 265 254 257 261 257 255 258 260 256 257 258 257 257 255 254 250 243
185 189 193 193 190 188 191 184 193 199 207 212 211 210 215 226 240 250 250 257 260 264 265 265 262 254 247 242 242 243 248 253 256 259 259 260 258 257 258 257 254 255 250
184 199 198 194 193 198 198 198 200 204 212 217 216 210 209 224 236 241 244 244 244 247 250 254 254 251 250 247 243 247 250 249 250 253 257 261 262 260 260 260 260 262 260
196 206 204 198 201 200 202 209 212 217 222 226 222 215 214 225 237 239 240 239 241 242 245 251 251 250 250 250 247 245 249 249 251 250 254 260 264 263 261 259 260 262 262
205 211 204 201 205 203 212 219 223 225 228 229 231 231 226 229 235 236 239 240 241 239 240 245 250 251 251 249 251 248 248 247 248 249 249 258 262 262 259 258 260 259 258
209 213 208 207 205 208 220 234 234 231 230 233 240 242 239 236 240 242 240 241 240 240 242 244 246 243 247 248 253 253 252 248 246 248 250 253 260 261 258 257 258 257 254
190 194 201 209 201 208 212 218 226 230 234 243 247 251 251 249 247 248 249 249 246 242 241 245 245 240 240 237 243 247 245 247 248 249 250 253 256 261 261 257 255 255 254
164 164 168 187 196 207 212 214 220 232 240 248 255 258 263 264 260 248 253 260 259 253 245 244 243 234 239 238 238 242 243 246 249 252 251 252 252 254 257 259 256 253 255
146 151 157 170 187 191 192 198 212 232 241 238 239 250 263 270 277 268 261 266 267 262 256 246 245 237 237 237 243 248 245 245 246 246 250 252 252 253 254 254 256 254 253
146 158 169 179 184 167 162 185 210 245 256 266 265 269 284 290 292 286 275 274 265 255 254 250 246 244 241 220 226 259 257 245 245 246 245 247 251 253 255 255 254 253 252
187 190 196 202 203 198 184 185 196 224 266 285 301 306 303 303 301 300 287 282 274 262 257 252 240 237 233 195 200 226 271 280 244 240 241 244 251 257 261 262 257 252 247
217 213 209 215 217 217 203 154 52 3 338 323 319 313 313 310 300 294 290 286 281 270 261 252 239 233 236 217 202 201 213 234 275 269 247 245 251 257 265 271 266 260 250
227 229 231 233 235 232 193 193 203 222 257 264 282 291 305 312 311 305 297 292 285 276 267 260 249 236 232 230 215 216 220 202 217 271 273 254 251 253 266 274 274 269 248
241 246 245 246 256 246 211 201 201 215 226 255 276 295 305 312 312 308 303 298 292 283 273 266 258 244 233 231 219 209 220 222 218 230 257 256 266 268 293 301 289 274 245
262 246 229 224 240 227 207 197 194 205 215 249 284 300 307 309 304 303 308 301 294 287 278 269 260 250 240 236 230 213 202 203 206 214 230 240 248 288 343 356 342 334 56